Location: Newark
(26.9047°N, 51.5475°E)
Time: 06:09:14
(UTC+00:00)

ISS - Visible Passes

Search period start: 07 December 2019 00:00
Search period end: 17 December 2019 00:00
Orbit: 411 x 421 km, 51.6° (Epoch: 07 December)

Date Brightness Start Highest point End Pass type
(mag) Time Alt. Az. Time Alt. Az. Time Alt. Az.
09 Dec -1.3 15:11:47 10° NNW 15:12:23 14° NNW 15:12:23 14° NNW visible
10 Dec -2.0 14:23:58 10° N 14:26:09 16° NE 14:27:01 15° ENE visible
10 Dec -0.4 15:59:55 10° WNW 16:00:01 11° WNW 16:00:01 11° WNW visible
11 Dec -3.5 15:11:08 10° NW 15:14:28 68° SW 15:15:12 48° SSE visible
12 Dec -3.7 14:22:41 10° NNW 14:25:57 53° NE 14:29:14 10° SE visible
13 Dec -0.6 15:11:43 10° W 15:13:55 17° SW 15:16:08 10° SSW visible
14 Dec -1.8 14:22:26 10° WNW 14:25:30 34° SW 14:28:34 10° SSE visible
